Weather in Okhvat

Russia / Tver Oblast     56°46′18″N   32°26′34″E
temp.,
°C
wind,
m/s
gust,
m/s
humid.,
%
clouds,
%
prec.,
mm/h
press.,
hPa
HPBL,
m
17 april, sat
sat1700:00+8ene51281100 0.0 1022882
03:00+8ene51181100 0.0 1022654
06:00+7ene51283100 0.0 1022569
09:00+8e5979100 0.0 1023607
12:00+11ene4773100 0.0 1023729
15:00+12ene4967100 0.0 10231084
18:00+13ene51163100 0.0 10221152
21:00+9ene51368100 0.0 1023737
18 april, sun
sun1800:00+7ne5136747 0.0 1023596
03:00+5ene4137141 0.0 1024505
06:00+4ne4127818 0.0 1024442
09:00+7ene510616 0.0 1024689
12:00+12ene69455 0.0 10231390
15:00+13ene683910 0.0 10231886
18:00+12ene584649 0.0 10231929
21:00+7e386392 0.0 1025217
19 april, mon
mon1900:00+4ene238742 0.0 102665
03:00+3ne399132 0.0 1026218
06:00+3ne311925 0.0 1026364
09:00+7ene5974100 0.0 1026697
12:00+9ene5863100 0.0 10251275
15:00+9ene5767100 0.1 10251237
18:00+8ene4872100 0.1 1025987
21:00+6ene41079100 0.2 1025741
20 april, tue
tue2000:00+5e4107699 0.0 1023878
03:00+4ene4117788 0.0 1022827
06:00+3ene51275100 0.0 1020644
09:00+4e51369100 0.0 1019623
12:00+9e61057100 0.0 10171190
15:00+11e61050100 0.0 10131607
18:00+8ene61365100 0.0 10101186
21:00+5ene71790100 1.8 10071113
21 april, wed
wed2100:00+4ene71796100 4.7 10021264
03:00+5e61493100 5.7 999875
06:00+6e51294100 0.0 997770
09:00+7e51194100 0.1 996791
12:00+9ese5985100 0.6 9941422
15:00+2sse61496100 1.8 997740
18:00+3ssw71596100 4.6 9991080
21:00+3ssw71397100 8.1 10021014